TimeMDT,TemperatureF,Dew PointF,Humidity,Sea Level PressureIn,VisibilityMPH,Wind Direction,Wind SpeedMPH,Gust SpeedMPH,PrecipitationIn,Events,Conditions,WindDirDegrees,DateUTC
12:55 AM,60.1,55.9,86,-9999,10.0,ESE,9.2,-,N/A,,Clear,120,2013-06-22 06:55:00
1:55 AM,57.9,55.9,93,-9999,10.0,Calm,Calm,-,N/A,,Clear,0,2013-06-22 07:55:00
2:55 AM,57.0,55.9,96,-9999,10.0,West,3.5,-,N/A,,Clear,260,2013-06-22 08:55:00
3:55 AM,57.9,55.9,93,-9999,10.0,WNW,6.9,-,N/A,,Clear,300,2013-06-22 09:55:00
4:55 AM,57.0,55.0,93,-9999,10.0,NW,4.6,-,N/A,,Clear,310,2013-06-22 10:55:00
5:55 AM,57.9,55.0,90,-9999,10.0,WNW,3.5,-,N/A,,Clear,290,2013-06-22 11:55:00
6:55 AM,64.0,57.9,80,-9999,10.0,North,5.8,-,N/A,,Clear,10,2013-06-22 12:55:00
7:55 AM,66.9,57.9,73,-9999,10.0,NNW,4.6,-,N/A,,Clear,330,2013-06-22 13:55:00
8:55 AM,71.1,61.0,70,-9999,10.0,NNW,3.5,-,N/A,,Clear,330,2013-06-22 14:55:00
9:55 AM,73.0,61.0,66,-9999,10.0,Calm,Calm,-,N/A,,Clear,0,2013-06-22 15:55:00
10:55 AM,77.0,62.1,60,-9999,10.0,East,9.2,-,N/A,,Clear,90,2013-06-22 16:55:00
11:55 AM,79.0,61.0,54,-9999,10.0,ESE,5.8,-,N/A,,Clear,110,2013-06-22 17:55:00
12:55 PM,81.0,62.1,52,-9999,10.0,ENE,8.1,-,N/A,,Clear,70,2013-06-22 18:55:00
1:55 PM,81.0,61.0,50,-9999,10.0,Variable,4.6,-,N/A,,Clear,0,2013-06-22 19:55:00
2:55 PM,82.0,64.0,54,-9999,10.0,East,6.9,16.1,N/A,,Scattered Clouds,100,2013-06-22 20:55:00
3:55 PM,82.0,64.0,54,-9999,5.0,ESE,10.4,-,N/A,,Haze,110,2013-06-22 21:55:00
4:55 PM,80.1,63.0,56,-9999,10.0,SE,8.1,-,N/A,,Clear,130,2013-06-22 22:55:00
5:55 PM,79.0,64.0,60,-9999,10.0,SE,4.6,-,N/A,,Clear,140,2013-06-22 23:55:00
6:55 PM,78.1,64.0,62,-9999,10.0,WNW,12.7,19.6,N/A,,Overcast,300,2013-06-23 00:55:00
7:03 PM,64.4,53.6,68,29.81,9.0,NW,35.7,51.8,0.00,Rain,Light Rain,320,2013-06-23 01:03:00
7:07 PM,60.8,53.6,77,29.81,2.5,NW,36.8,48.3,0.00,Rain-Thunderstorm,Heavy Thunderstorms and Rain,320,2013-06-23 01:07:00
7:10 PM,57.2,53.6,88,29.80,0.8,NW,39.1,48.3,0.03,Rain-Thunderstorm,Heavy Thunderstorms and Rain,320,2013-06-23 01:10:00
7:20 PM,57.2,55.4,94,29.82,0.2,NW,27.6,51.8,0.37,Fog-Rain-Thunderstorm,Heavy Thunderstorms and Rain,320,2013-06-23 01:20:00
7:28 PM,57.2,55.4,94,29.82,0.5,NW,34.5,47.2,0.50,Fog-Rain-Thunderstorm,Heavy Thunderstorms and Rain,320,2013-06-23 01:28:00
7:39 PM,57.2,57.2,100,29.88,2.0,NW,19.6,39.1,0.72,Rain-Thunderstorm,Heavy Thunderstorms and Rain,310,2013-06-23 01:39:00
7:55 PM,59.0,57.9,96,29.83,9.0,NNW,23.0,31.1,0.93,Rain-Thunderstorm,Rain,330,2013-06-23 01:55:00
8:55 PM,57.9,57.9,100,29.84,4.0,North,8.1,-,0.20,Rain-Thunderstorm,Heavy Thunderstorms and Rain,10,2013-06-23 02:55:00
9:22 PM,59.0,57.2,94,29.86,10.0,NNW,9.2,-,0.01,Rain,Light Rain,340,2013-06-23 03:22:00
9:55 PM,59.0,57.9,96,29.78,10.0,North,15.0,-,0.01,Rain,Light Rain,350,2013-06-23 03:55:00
10:55 PM,57.9,55.9,93,29.71,10.0,NW,8.1,-,0.00,,Clear,310,2013-06-23 04:55:00
11:55 PM,57.9,55.9,93,29.76,10.0,WNW,5.8,-,N/A,,Clear,290,2013-06-23 05:55:00